Aérodrome :
LOGIN :

S'inscrire | Disclaimer

   EN    FR    IT 

 










Légende :    VFR   VFR Marginal   IFR   IFR Intensif   IFR Très Intensif
Visi : 
Plafond : 
>= 8 km
>= 3000ft
5 à 8 km
1000 à 3000 ft
1500m à 5 km
500 à 1000 ft
800 à 1500m
200 à 500 ft
< 800m
< 200 ft
Symboles :   Orages  Brouillard  Fortes neiges  Fortes précipitations  Vent > 20 kt
SIGMETs :   Divers  Orages  Givrage  Turbulence  Onde Orograph.  Cendres Volcan.







- Altitude de l'aérodrome : 598 ft
- Code IATA : BQH
- Voir les cartes d'approche


EGKB - Biggin Hill

DERNIER METAR :
  • 160750Z 17009KT 1700 BR FEW002 14/13 Q1016

METARs EXPIRÉS :
  • 160720Z 16008KT 1600 BR FEW002 13/13 Q1016
  • 160650Z 16006KT 1600 BR FEW002 13/13 Q1015
  • 160620Z 18006KT 0700 R21///// FG OVC002 13/13 Q1015
  • 160550Z 15006KT 1800 BR BKN003 13/13 Q1015
  • 160520Z 16007KT 1800 BR BKN003 13/13 Q1015

TAF AMD TAF EGKB
Valide du 16 à 06h jusqu'au 16 à 15h UTC


160653Z 1606/1615 16008KT 2000 BR SCT003
PROB30 1606/1608 0300 FG BKN000
BECMG 1608/1611 9999 NSW
Pas de NOTAMs connus pour ce terrain.



MET'MAP, la Météo Aéronautique d'un coup d'oeil ! - Copyright ORBIFLY Décembre 2007 - Disclaimer

ORBIFLY MET'MAP TEAM :

Programmation & Développement : Alexandra Zaïnal
Conception & Développement : Baudouin d'Aumeries
Co-Programmation & Développement : Marc-Olivier Méhu
Soutien technique & logistique : Manuel Goepfert

Contact : metmap@orbifly.com




SOURCES & CREDITS :

   NOAA